TimeCDT,TemperatureF,Dew PointF,Humidity,Sea Level PressureIn,VisibilityMPH,Wind Direction,Wind SpeedMPH,Gust SpeedMPH,PrecipitationIn,Events,Conditions,WindDirDegrees,DateUTC
12:15 AM,55.4,42.8,63,30.12,10.0,SE,6.9,-,N/A,,Clear,130,2013-09-14 05:15:00
12:35 AM,53.6,42.8,67,30.12,10.0,SE,5.8,-,N/A,,Clear,140,2013-09-14 05:35:00
12:55 AM,55.4,42.8,63,30.11,10.0,SE,4.6,-,N/A,,Clear,140,2013-09-14 05:55:00
1:15 AM,48.2,41.0,76,30.11,10.0,ESE,3.5,-,N/A,,Clear,120,2013-09-14 06:15:00
1:35 AM,48.2,41.0,76,30.12,10.0,SE,4.6,-,N/A,,Clear,140,2013-09-14 06:35:00
1:55 AM,53.6,42.8,67,30.12,10.0,SSE,3.5,-,N/A,,Clear,150,2013-09-14 06:55:00
2:15 AM,53.6,42.8,67,30.12,10.0,SSE,4.6,-,N/A,,Clear,150,2013-09-14 07:15:00
2:35 AM,53.6,42.8,67,30.12,10.0,SSE,5.8,-,N/A,,Clear,160,2013-09-14 07:35:00
2:55 AM,53.6,42.8,67,30.12,10.0,SSE,4.6,-,N/A,,Clear,150,2013-09-14 07:55:00
3:15 AM,53.6,42.8,67,30.11,10.0,SSE,5.8,-,N/A,,Clear,150,2013-09-14 08:15:00
3:35 AM,53.6,42.8,67,30.11,10.0,SSE,5.8,-,N/A,,Clear,150,2013-09-14 08:35:00
3:55 AM,53.6,42.8,67,30.11,10.0,SSE,4.6,-,N/A,,Clear,150,2013-09-14 08:55:00
4:15 AM,53.6,41.0,62,30.11,10.0,SSE,4.6,-,N/A,,Clear,160,2013-09-14 09:15:00
4:35 AM,53.6,41.0,62,30.11,10.0,South,6.9,-,N/A,,Clear,180,2013-09-14 09:35:00
4:55 AM,53.6,41.0,62,30.11,10.0,South,8.1,-,N/A,,Clear,180,2013-09-14 09:55:00
5:15 AM,53.6,41.0,62,30.11,10.0,South,6.9,-,N/A,,Clear,170,2013-09-14 10:15:00
5:35 AM,53.6,41.0,62,30.11,10.0,South,9.2,-,N/A,,Clear,180,2013-09-14 10:35:00
5:55 AM,53.6,39.2,58,30.11,10.0,South,8.1,-,N/A,,Clear,180,2013-09-14 10:55:00
6:15 AM,51.8,39.2,62,30.11,10.0,South,8.1,-,N/A,,Clear,180,2013-09-14 11:15:00
6:35 AM,51.8,39.2,62,30.11,10.0,South,6.9,-,N/A,,Clear,180,2013-09-14 11:35:00
6:55 AM,51.8,39.2,62,30.11,10.0,South,6.9,-,N/A,,Clear,180,2013-09-14 11:55:00
7:15 AM,51.8,39.2,62,30.11,10.0,South,8.1,-,N/A,,Clear,180,2013-09-14 12:15:00
7:35 AM,53.6,39.2,58,30.11,10.0,South,9.2,-,N/A,,Clear,180,2013-09-14 12:35:00
7:55 AM,53.6,41.0,62,30.11,10.0,South,6.9,-,N/A,,Clear,180,2013-09-14 12:55:00
8:15 AM,55.4,41.0,58,30.11,10.0,South,8.1,-,N/A,,Clear,180,2013-09-14 13:15:00
8:35 AM,57.2,42.8,59,30.11,10.0,SSW,9.2,-,N/A,,Clear,200,2013-09-14 13:35:00
8:55 AM,59.0,42.8,55,30.11,10.0,SSW,10.4,16.1,N/A,,Clear,200,2013-09-14 13:55:00
9:15 AM,60.8,42.8,52,30.11,10.0,South,11.5,17.3,N/A,,Clear,190,2013-09-14 14:15:00
9:35 AM,62.6,42.8,48,30.11,10.0,South,17.3,-,N/A,,Clear,190,2013-09-14 14:35:00
9:55 AM,64.4,42.8,45,30.10,10.0,South,16.1,-,N/A,,Clear,180,2013-09-14 14:55:00
10:15 AM,66.2,42.8,43,30.09,10.0,SSW,13.8,19.6,N/A,,Clear,200,2013-09-14 15:15:00
10:35 AM,68.0,42.8,40,30.09,10.0,SSW,13.8,23.0,N/A,,Clear,200,2013-09-14 15:35:00
10:55 AM,69.8,44.6,40,30.08,10.0,SSW,15.0,19.6,N/A,,Clear,210,2013-09-14 15:55:00
11:15 AM,69.8,42.8,38,30.08,10.0,South,16.1,20.7,N/A,,Clear,190,2013-09-14 16:15:00
11:35 AM,69.8,42.8,38,30.08,10.0,South,15.0,19.6,N/A,,Clear,190,2013-09-14 16:35:00
11:55 AM,71.6,42.8,35,30.07,10.0,SSW,15.0,20.7,N/A,,Clear,210,2013-09-14 16:55:00
12:15 PM,73.4,44.6,36,30.06,10.0,South,17.3,20.7,N/A,,Clear,180,2013-09-14 17:15:00
12:35 PM,71.6,42.8,35,30.05,10.0,SSW,16.1,20.7,N/A,,Clear,200,2013-09-14 17:35:00
12:55 PM,73.4,44.6,36,30.05,10.0,SW,15.0,23.0,N/A,,Partly Cloudy,220,2013-09-14 17:55:00
1:15 PM,73.4,44.6,36,30.04,10.0,South,13.8,21.9,N/A,,Mostly Cloudy,170,2013-09-14 18:15:00
1:35 PM,75.2,44.6,34,30.02,10.0,SSW,17.3,-,N/A,,Mostly Cloudy,210,2013-09-14 18:35:00
1:55 PM,75.2,44.6,34,30.01,10.0,SSW,13.8,-,N/A,,Overcast,200,2013-09-14 18:55:00
2:15 PM,77.0,44.6,32,30.00,10.0,South,12.7,25.3,N/A,,Mostly Cloudy,190,2013-09-14 19:15:00
2:35 PM,75.2,44.6,34,30.00,10.0,South,16.1,24.2,N/A,,Clear,190,2013-09-14 19:35:00
2:55 PM,73.4,44.6,36,29.99,10.0,South,16.1,19.6,N/A,,Clear,190,2013-09-14 19:55:00
3:15 PM,75.2,44.6,34,29.98,10.0,South,13.8,19.6,N/A,,Clear,180,2013-09-14 20:15:00
3:35 PM,75.2,42.8,31,29.98,10.0,South,11.5,24.2,N/A,,Clear,190,2013-09-14 20:35:00
3:55 PM,75.2,44.6,34,29.97,10.0,SSW,15.0,18.4,N/A,,Clear,200,2013-09-14 20:55:00
4:15 PM,75.2,44.6,34,29.96,10.0,South,15.0,20.7,N/A,,Clear,190,2013-09-14 21:15:00
4:35 PM,75.2,44.6,34,29.96,10.0,South,17.3,20.7,N/A,,Clear,190,2013-09-14 21:35:00
4:55 PM,75.2,44.6,34,29.95,10.0,South,12.7,19.6,N/A,,Clear,180,2013-09-14 21:55:00
5:15 PM,73.4,42.8,33,29.94,10.0,South,15.0,19.6,N/A,,Clear,190,2013-09-14 22:15:00
5:35 PM,73.4,42.8,33,29.94,10.0,South,10.4,20.7,N/A,,Clear,180,2013-09-14 22:35:00
5:55 PM,73.4,44.6,36,29.94,10.0,South,15.0,20.7,N/A,,Partly Cloudy,190,2013-09-14 22:55:00
6:15 PM,73.4,44.6,36,29.94,10.0,South,10.4,17.3,N/A,,Scattered Clouds,190,2013-09-14 23:15:00
6:35 PM,71.6,44.6,38,29.94,10.0,South,10.4,-,N/A,,Clear,190,2013-09-14 23:35:00
6:55 PM,71.6,44.6,38,29.94,10.0,South,9.2,-,N/A,,Mostly Cloudy,190,2013-09-14 23:55:00
7:15 PM,69.8,46.4,43,29.93,10.0,South,6.9,-,N/A,,Overcast,180,2013-09-15 00:15:00
7:35 PM,68.0,48.2,49,29.92,10.0,South,8.1,-,N/A,,Overcast,190,2013-09-15 00:35:00
7:55 PM,66.2,48.2,52,29.92,10.0,South,10.4,-,N/A,,Overcast,190,2013-09-15 00:55:00
8:15 PM,64.4,51.8,64,29.91,10.0,SSE,5.8,-,N/A,,Overcast,150,2013-09-15 01:15:00
8:35 PM,62.6,51.8,68,29.90,10.0,SSE,5.8,-,N/A,,Overcast,160,2013-09-15 01:35:00
8:55 PM,62.6,51.8,68,29.90,10.0,South,9.2,-,N/A,,Mostly Cloudy,170,2013-09-15 01:55:00
9:15 PM,64.4,48.2,56,29.90,10.0,South,8.1,-,N/A,,Mostly Cloudy,180,2013-09-15 02:15:00
9:35 PM,64.4,48.2,56,29.90,10.0,South,10.4,-,N/A,,Mostly Cloudy,180,2013-09-15 02:35:00
9:55 PM,66.2,46.4,49,29.90,10.0,South,13.8,19.6,N/A,,Overcast,180,2013-09-15 02:55:00
10:15 PM,64.4,48.2,56,29.89,10.0,South,10.4,-,N/A,,Overcast,180,2013-09-15 03:15:00
10:35 PM,64.4,48.2,56,29.89,10.0,South,12.7,-,N/A,,Overcast,180,2013-09-15 03:35:00
10:55 PM,66.2,48.2,52,29.88,10.0,South,11.5,-,N/A,,Overcast,190,2013-09-15 03:55:00
11:15 PM,66.2,48.2,52,29.89,10.0,SSW,13.8,-,N/A,,Overcast,200,2013-09-15 04:15:00
11:35 PM,66.2,48.2,52,29.89,10.0,SSW,12.7,-,N/A,,Overcast,200,2013-09-15 04:35:00
11:55 PM,66.2,48.2,52,29.89,10.0,SSW,12.7,17.3,N/A,,Overcast,200,2013-09-15 04:55:00